Location: Delain
(47.5814°N, 5.6365°E)
Time: 20:49:10
(UTC+00:00)

Daily predictions for brighter satellites

Satellite Brightness Start Highest point End
(mag) Time Altitude Azimuth Time Altitude Azimuth Time Altitude Azimuth
NOAA 11 4.4 16:53:22 10° SE 16:58:38 52° ENE 17:03:55 10° N
BREEZE-M R/B 3.0 16:56:15 10° W 16:59:25 80° NNW 17:05:29 10° ENE
Helios 1A Rocket 4.0 16:59:16 10° ESE 17:02:35 24° ENE 17:05:54 10° N
GEOS 3 Rocket 4.4 16:57:48 10° E 17:02:36 35° NE 17:07:27 10° NNW
Cosmos 1850 Rocket 4.1 17:02:08 10° NNW 17:07:27 86° ENE 17:12:47 10° SSE
Cosmos 2369 Rocket 3.5 17:03:27 10° SW 17:08:49 42° NW 17:14:14 10° NNE
Cosmos 2297 Rocket 3.1 17:04:37 10° N 17:09:28 28° NE 17:14:18 10° ESE
Cosmos 1939 Rocket 3.4 17:06:48 10° SE 17:10:27 36° ENE 17:14:06 10° N
NOAA 12 4.4 17:08:19 10° S 17:13:36 78° WSW 17:18:57 10° NNW
COSMO-SKYMED 1 3.3 17:09:54 10° NNE 17:13:51 32° E 17:17:46 10° SSE
Cosmos 304 Rocket 4.3 17:10:17 10° SW 17:15:00 62° WNW 17:19:47 10° NNE
FALCON 9 DEB 4.1 17:12:52 10° W 17:16:07 39° NNW 17:19:23 10° ENE
Cosmos 1452 Rocket 3.6 17:10:56 10° SSW 17:16:12 85° WNW 17:21:31 10° NNE
Cosmos 1689 Rocket 3.2 17:14:13 10° NE 17:16:39 24° E 17:19:03 10° SSE
Okean O Rocket 2.2 17:12:57 10° S 17:17:17 62° WSW 17:21:37 10° NNW
Aureole 3 Rocket 4.2 17:15:28 10° SE 17:18:26 22° E 17:22:06 10° NNE
H-2A R/B 3.2 17:16:15 10° ESE 17:20:27 24° ENE 17:24:42 10° N
H-2A R/B 3.3 17:17:23 10° N 17:21:22 42° WNW 17:25:15 10° SW
Cosmos 1328 3.8 17:17:41 10° N 17:21:40 87° WSW 17:25:36 10° S
Cosmos 2098 Rocket 4.4 17:20:35 10° NNW 17:23:30 31° W 17:26:08 10° SSW
IRS-1C Rocket 4.1 17:20:16 10° SSE 17:25:26 61° ENE 17:30:39 10° N
ADEOS Rocket 3.9 17:19:22 10° N 17:25:28 59° WNW 17:32:13 10° SSW
Cosmos 1340 3.8 17:22:58 10° NNE 17:26:04 23° ENE 17:29:09 10° SE
Cosmos 1356 Rocket 4.2 17:22:25 10° SSW 17:26:36 57° WNW 17:30:52 10° N
Cosmos 1825 Rocket 3.5 17:23:31 10° N 17:28:00 72° E 17:32:25 10° SSE
CZ-4 R/B 2.0 17:24:43 10° SE 17:28:11 31° ENE 17:31:38 10° N
ERS-2 2.4 17:25:02 10° N 17:28:41 73° WNW 17:32:18 10° SSW
BREEZE-M DEB (TANK) 4.2 17:27:18 10° W 17:30:54 67° N 17:42:44 12° ENE
YAOGAN 1 3.2 17:28:08 10° SE 17:32:00 33° ENE 17:35:53 10° N
USA 281 4.3 17:26:31 10° S 17:32:51 50° WSW 17:39:13 10° NW
Lacrosse 5 3.0 17:29:37 10° W 17:34:18 36° NNW 17:38:57 10° NE
Cosmos 2219 3.6 17:29:40 10° NNW 17:35:08 42° NE 17:40:34 10° SE
ERBS 4.2 17:32:32 10° WNW 17:35:17 23° NNW 17:38:01 10° NE
Meteor 2-21 Rocket 4.4 17:29:27 10° N 17:35:41 73° E 17:41:48 10° SSE
CZ-4B R/B 2.1 17:36:50 10° N 17:40:03 55° WNW 17:43:10 10° SSW
SAR-Lupe-4 3.5 17:36:56 10° NNE 17:40:33 83° ESE 17:44:08 10° SSW
Cosmos 1400 Rocket 3.5 17:38:39 10° SSE 17:42:22 34° E 17:46:06 10° NNE
Cosmos 44 3.6 17:39:50 10° S 17:44:01 41° ESE 17:47:39 15° NE
USA 305 3.9 17:40:16 10° WNW 17:44:16 36° N 17:46:51 19° ENE
Okean-O 2.7 17:40:55 10° SSE 17:45:14 56° ENE 17:49:36 10° N
Cosmos 1758 Rocket 4.3 17:40:53 10° NNW 17:45:15 58° W 17:49:32 10° S
Cosmos 1726 Rocket 3.5 17:41:04 10° S 17:45:21 64° E 17:49:42 10° NNE
CZ-4C R/B 4.2 17:42:39 10° NW 17:47:13 20° N 17:52:05 11° NE
NOSS 2-2 (E) 4.5 17:44:44 10° NW 17:50:15 71° NE 17:57:55 10° SE
USA 306 3.8 17:46:33 10° WNW 17:50:33 36° N 17:52:49 21° ENE
Cosmos 1745 Rocket 4.4 17:48:04 10° N 17:53:56 39° ENE 17:59:49 10° SE
Aureole 3 2.8 17:54:57 10° S 17:58:11 49° E 18:00:42 13° NNE
SAR-Lupe-1 4.5 17:54:40 10° N 17:58:15 65° WNW 18:01:48 10° SSW
FALCON 9 DEB 4.0 17:56:51 10° SSW 17:59:41 29° SE 17:59:55 28° SE
Cosmos 1606 Rocket 3.8 17:55:25 10° SSW 17:59:46 72° W 18:04:11 10° N
Cosmos 1331 Rocket 3.9 17:54:39 10° SSW 17:59:49 89° WNW 18:05:01 10° NNE
SKYMED 2 3.6 17:57:41 10° NNE 18:02:04 82° WNW 18:06:24 10° SSW
Cosmos 2228 3.5 17:59:54 10° SSW 18:04:04 60° WNW 18:08:19 10° N
GENESIS II 4.2 18:00:27 10° SSW 18:04:28 81° SE 18:07:02 22° NE
ATLAS 5 CENTAUR R/B 3.9 18:01:59 10° WNW 18:05:07 19° NNW 18:08:36 10° NNE
Cosmos 1244 Rocket 4.4 18:00:01 10° N 18:06:14 86° E 18:12:30 10° S
SL-4 R/B 2.4 18:03:11 10° WNW 18:06:38 44° N 18:08:01 30° NE
NOSS 2-2 (D) 4.4 18:01:40 10° NW 18:07:06 76° NE 18:13:51 13° SE
FALCON 9 DEB 3.7 18:04:19 10° SSW 18:07:15 34° SE 18:07:16 34° SE
CZ-2C R/B 3.2 18:02:13 10° SSE 18:08:00 72° ENE 18:13:41 10° N
Cosmos 292 Rocket 3.7 18:04:11 10° SSW 18:08:58 86° ESE 18:13:50 10° NNE
Cosmos 1346 Rocket 3.2 18:09:01 10° N 18:12:47 38° ENE 18:12:49 38° ENE
ARGOS 3.4 18:09:08 18° SE 18:12:52 44° ENE 18:18:01 10° N
Cosmos 2227 Rocket 2.2 18:07:53 10° NNW 18:13:31 60° ENE 18:17:08 22° SE
FALCON 9 DEB 3.7 18:12:15 10° SSW 18:15:00 37° SSE 18:15:00 37° SSE
Meteor 2-10 Rocket 3.8 18:10:41 10° SSE 18:15:42 42° E 18:20:35 10° NNE
SeaSat 1 2.5 18:14:54 28° ESE 18:17:21 56° NE 18:22:12 10° NNW
Cosmos 1892 2.6 18:13:41 10° N 18:17:33 61° ENE 18:19:18 30° SSE
CZ-2D R/B 4.1 18:16:02 10° S 18:19:45 51° W 18:23:29 10° NNW
USA 215 3.6 18:17:28 28° E 18:20:49 52° NNE 18:27:08 10° NW
Cosmos 1656 3.7 18:17:19 10° S 18:22:41 53° ESE 18:26:21 21° NE
Cosmos 1709 Rocket 4.5 18:18:12 10° N 18:24:07 39° ENE 18:25:51 33° ESE
Cosmos 2263 Rocket 3.8 18:20:21 10° N 18:24:10 18° NE 18:24:14 18° NE
Cosmos 968 Rocket 3.4 18:19:18 10° NNW 18:24:30 63° ENE 18:26:57 31° SE
ATLAS 2AS CENTAUR R/B 3.9 18:18:26 10° NW 18:25:09 31° NNE 18:27:53 24° ENE
CSL-04 Rocket 3.6 18:20:12 10° SSE 18:25:44 75° ENE 18:31:17 10° NNW
Cosmos 2058 Rocket 3.2 18:21:53 10° SSW 18:26:21 77° W 18:30:53 10° N
Cosmos 1302 Rocket 3.9 18:23:03 10° SSW 18:28:19 85° ESE 18:33:39 10° NNE
HJ-1C 3.9 18:30:27 47° N 18:30:27 47° N 18:33:00 10° N
FALCON 9 DEB 3.8 18:26:49 10° SW 18:29:11 40° SSW 18:29:11 40° SSW
Cosmos 1300 4.2 18:27:16 10° SW 18:30:50 37° WNW 18:34:26 10° N
Cosmos 1486 Rocket 3.9 18:25:38 10° NNW 18:31:00 74° ENE 18:33:47 29° SSE
USA 307 3.4 18:28:20 10° WNW 18:32:29 45° NNE 18:32:53 43° NE
Cosmos 1697 Rocket 3.6 18:29:27 10° S 18:32:53 30° SE 18:32:53 30° SE
USA 308 3.3 18:33:06 10° WNW 18:37:15 46° NNE 18:37:27 46° NNE
Cosmos 1503 Rocket 4.1 18:35:04 10° NNW 18:40:10 52° ENE 18:40:29 52° ENE
GEOS 3 Rocket 4.0 18:36:45 21° SSE 18:40:22 65° SW 18:45:45 10° NW
DMSP B5D1-3 4.4 18:37:38 10° NNE 18:42:48 88° ESE 18:47:58 10° SSW
S3M 3.8 18:37:26 10° S 18:43:31 76° E 18:49:41 10° NNE
CRYOSAT 2 4.2 18:39:32 10° N 18:44:26 84° E 18:49:18 10° S
Cosmos 1825 4.2 18:43:17 10° N 18:44:29 19° N 18:44:29 19° N
Cosmos 1354 Rocket 4.1 18:44:38 10° NNW 18:49:38 55° NE 18:49:38 55° NE
Cosmos 1408 3.8 18:48:24 10° NNW 18:50:33 33° NNW 18:50:33 33° NNW
Cosmos 2297 Rocket 2.6 18:48:20 10° NNW 18:53:55 60° WSW 18:57:47 20° S
Cosmos 2058 3.1 18:53:54 10° NNW 18:57:58 66° W 18:57:58 66° W
MOS 1 Rocket 3.5 18:53:51 10° N 18:58:24 71° WNW 19:03:14 10° SSW
H-2A R/B 2.6 18:54:07 10° S 18:59:26 62° W 19:04:52 10° NNW
SL-08 RB Rocket 4.2 19:03:12 49° N 19:03:12 49° N 19:06:31 10° NNW
CZ-4 R/B 3.7 19:00:06 10° SSW 19:03:16 23° W 19:06:25 10° NW
Timation 1 Rocket 4.4 19:02:38 10° NNW 19:08:22 61° NE 19:08:22 61° NE
Cosmos 1076 Rocket 4.5 19:08:02 10° NNW 19:10:59 42° NNW 19:10:59 42° NNW
Ariane Rocket 3.6 19:18:51 48° N 19:18:51 48° N 19:22:33 10° NNW
Lacrosse 5 3.3 19:14:00 10° NW 19:18:09 28° N 19:18:09 28° N
BREEZE-M R/B 4.0 19:17:43 10° WNW 19:22:32 85° NNE 19:23:15 74° E
USA 305 4.4 19:20:27 10° WNW 19:23:00 34° NW 19:23:00 34° NW
Cosmos 2082 3.9 19:24:38 10° NNW 19:30:17 67° WSW 19:30:17 67° WSW
Atlas Centaur 2 4.5 19:26:23 10° SW 19:31:14 20° S 19:31:14 20° S
CZ-4C R/B 3.7 19:31:39 10° NNW 19:37:16 35° NNE 19:37:16 35° NNE
ATLAS 5 CENTAUR R/B 4.4 19:49:17 10° NNW 19:51:05 13° N 19:51:05 13° N
NOSS 3-4 (A) 4.0 19:48:03 10° NW 19:53:45 61° N 19:53:45 61° N
NOSS 3-4 (C) 4.0 19:48:09 10° NW 19:53:51 60° N 19:53:51 60° N
SeaSat 1 4.3 19:54:43 24° WSW 19:55:08 25° WSW 19:59:10 10° NW
Cosmos 2227 Rocket 4.1 19:52:42 10° NW 19:57:07 24° WSW 19:59:01 20° SW
USA 215 3.6 20:04:50 60° W 20:04:50 60° W 20:10:15 10° NW
Cosmos 2263 Rocket 3.9 20:03:23 10° NNW 20:05:55 27° NNW 20:05:55 27° NNW
ATLAS 2AS CENTAUR R/B 3.4 20:09:45 10° NW 20:15:19 51° NNW 20:15:19 51° NNW
